Miscellaneous Local Product
Issued by NWS North Platte, NE

Home | Current Version | Previous Version | Graphics & Text | Print | Product List | Glossary On
Versions: 1 2 3 4 5 6 7 8 9 10 11 12 13 14 15 16 17 18 19 20 21 22 23 24 25 26 27 28 29 30 31 32 33 34 35 36 37 38 39 40 41 42 43 44 45 46 47 48 49 50
942
AXUS43 KLBF 080610
MISLBF


WESTERN AND NORTH CENTRAL NEBRASKA HOURLY WEATHER ROUNDUP
NATIONAL WEATHER SERVICE NORTH PLATTE NE
1200 AM CST MON FEB 08 2016

NOTE: "FAIR" INDICATES FEW OR NO CLOUDS BELOW 12,000 FEET WITH NO
SIGNIFICANT WEATHER AND/OR OBSTRUCTIONS TO VISIBILITY.

NOTE: STATIONS NOT REPORTING VARIABLES SUCH AS SKY/WEATHER OR
PRESSURE ARE PROVIDED BY THE NEBRASKA DEPARTMENT OF
ROADS...RAWS...AND APRS NETWORKS...AND ARE NOT UNDER
NATIONAL WEATHER SERVICE QUALITY CONTROL.

...OBSERVATIONS IN AND NEAR THE EASTERN PANHANDLE OF NEBRASKA...

CITY           SKY/WX    TMP DP  RH WIND       PRES   REMARKS
PINE RIDGE     CLEAR     23   9  55 NW3       30.31R
CHADRON        CLEAR     26  13  57 W12       30.34R WCI  16
ALLIANCE       CLEAR     24  12  60 NW22G30   30.29F WCI   9
SIDNEY         CLEAR     24  11  57 NW23      30.33S WCI   9
BIG SPRINGS      N/A     27  17  66 NW14        N/A  WCI  16
$$

...OBSERVATIONS IN NORTH CENTRAL NEBRASKA...

CITY           SKY/WX    TMP DP  RH WIND       PRES   REMARKS
VALENTINE      CLEAR     30  16  56 NW28G38   30.20R WCI  15
THEDFORD       CLEAR     31  16  54 NW24G35   30.21S WCI  17
AINSWORTH      CLEAR     32  17  53 NW33G40   30.17R WCI  17
O`NEILL        CLOUDY    33  17  53 NW36G45   30.10S WCI  17
ORD            PTCLDY    31  17  56 NW20G31   30.11F WCI  19
BROKEN BOW     CLOUDY    33  17  51 NW31G44   30.16R WCI  19
BUTTE            N/A     32  19  58 NW29G43     N/A  WCI  18
CHAMBERS         N/A     31  14  49 N21         N/A  WCI  19
EWING            N/A     32  19  58 NW15G31     N/A  WCI  22
$$

...OBSERVATIONS IN SOUTHWEST NEBRASKA AND FAR NORTHEAST COLORADO...

CITY           SKY/WX    TMP DP  RH WIND       PRES   REMARKS
WRAY           FAIR      28  13  55 NW21G28   30.34S WCI  14
HOLYOKE        FAIR      32  14  47 NW21G29   30.32S WCI  20
IMPERIAL       CLEAR     27  13  55 NW20G30   30.29S WCI  13
OGALLALA       CLEAR     27  13  56 NW23G31   30.29S WCI  12
NORTH PLATTE   CLEAR     28  13  53 NW20      30.24S WCI  15
MCCOOK         CLEAR     28  16  60 NW14      30.28R WCI  17
LEXINGTON      CLEAR     28  15  60 NW15      30.21S WCI  16
PAXTON           N/A     30  18  61 W8          N/A  WCI  22
STAPLETON        N/A     27  15  61 NW3G12      N/A
GOTHENBURG       N/A     28  15  57 NW8         N/A  WCI  20
CALLAWAY         N/A     29  17  59 NW20        N/A  WCI  16
$$

...OBSERVATIONS IN CENTRAL LINCOLN COUNTY AREA...

CITY           SKY/WX    TMP DP  RH WIND       PRES   REMARKS
N.P. AIRPORT   CLEAR     28  13  53 NW20      30.24S WCI  15
N.P. DOWNTOWN    N/A     29  16  58 NW12G20     N/A  WCI  19
N.P. SOUTHEAST   N/A     29  15  56 NW9G17      N/A  WCI  21
N.P. HILLCREST   N/A     29  17  59 NW20G28     N/A  WCI  16
$$

...SOME OBSERVATIONS FROM AROUND THE REGION...

CITY           SKY/WX    TMP DP  RH WIND       PRES   REMARKS
DENVER         CLOUDY    16  11  80 SE14      30.38R WCI   2
LARAMIE          N/A     17  12  80 N8        30.34S WCI   7
CHEYENNE       CLOUDY    17   9  70 N9        30.34S WCI   6
SCOTTSBLUFF    CLEAR     25  13  60 NW14      30.37S WCI  13
RAPID CITY     CLEAR     30   9  41 NW30G41   30.28S WCI  15
BISMARCK       CLEAR     30  17  58 NW28G36   30.17R WCI  15
PIERRE         PTCLDY    31  17  56 NW26G37   30.16R WCI  17
WINNER         MOCLDY    32  18  56 NW26G36   30.16R WCI  18
SIOUX FALLS    CLOUDY    24  16  71 N23G39    29.97R WCI   9
OMAHA          CLOUDY    30  23  75 NW26G37   29.99S WCI  16
GRAND ISLAND   CLEAR     30  17  58 NW17      30.14S WCI  18
KANSAS CITY    CLOUDY    36  25  64 NW15G28   29.98F WCI  27
WICHITA        CLEAR     36  20  52 NW14      30.20R WCI  27
OKLAHOMA CITY  CLOUDY    43  18  36 NW16      30.28S
LIBERAL        MOCLDY    28  12  50 W12       30.38R WCI  18
HAYS           CLEAR     34  12  40 W12       30.26R WCI  25
GOODLAND       PTCLDY    27  12  53 NW23G31   30.32S WCI  12
$$




USA.gov is the U.S. government's official web portal to all federal, state and local government web resources and services.